Time,TemperatureF,DewpointF,PressureIn,WindDirection,WindDirectionDegrees,WindSpeedMPH,WindSpeedGustMPH,Humidity,HourlyPrecipIn,Conditions,Clouds,dailyrainin,SoftwareType,DateUTC
2014-08-23 00:01:00,72.3,72.0,30.07,ESE,103,0.0,0.0,99,0.00,,,0.79,meteohub,2014-08-23 04:01:00,
2014-08-23 00:07:00,72.5,72.1,30.07,ESE,103,0.0,0.0,99,0.00,,,0.00,meteohub,2014-08-23 04:07:00,
2014-08-23 00:12:00,72.9,72.5,30.06,ESE,103,0.0,0.0,99,0.00,,,0.00,meteohub,2014-08-23 04:12:00,
2014-08-23 00:17:00,72.5,72.1,30.06,ESE,103,0.0,0.0,99,0.00,,,0.00,meteohub,2014-08-23 04:17:00,
2014-08-23 00:22:00,72.1,71.8,30.06,ESE,103,0.0,0.0,99,0.00,,,0.00,meteohub,2014-08-23 04:22:00,
2014-08-23 00:27:00,71.8,71.4,30.06,ESE,103,0.0,0.0,99,0.00,,,0.00,meteohub,2014-08-23 04:27:00,
2014-08-23 00:32:00,71.8,71.4,30.06,ESE,103,0.0,0.0,99,0.00,,,0.00,meteohub,2014-08-23 04:32:00,
2014-08-23 00:37:00,71.8,71.4,30.06,ESE,103,0.0,0.0,99,0.00,,,0.00,meteohub,2014-08-23 04:37:00,
2014-08-23 00:42:00,71.4,71.1,30.06,ESE,103,0.0,0.0,99,0.00,,,0.00,meteohub,2014-08-23 04:42:00,
2014-08-23 00:47:00,71.6,71.2,30.06,ESE,103,1.0,1.0,99,0.00,,,0.00,meteohub,2014-08-23 04:47:00,
2014-08-23 00:52:00,71.8,71.4,30.06,ESE,103,0.0,1.0,99,0.00,,,0.00,meteohub,2014-08-23 04:52:00,
2014-08-23 00:57:00,71.4,71.1,30.05,ESE,103,1.0,1.0,99,0.00,,,0.00,meteohub,2014-08-23 04:57:00,
2014-08-23 01:02:00,71.8,71.4,30.05,ESE,103,0.0,1.0,99,0.00,,,0.00,meteohub,2014-08-23 05:02:00,
2014-08-23 01:07:00,71.8,71.4,30.06,ESE,103,0.0,1.0,99,0.00,,,0.00,meteohub,2014-08-23 05:07:00,
2014-08-23 01:12:00,71.6,71.2,30.05,ESE,103,0.0,1.0,99,0.00,,,0.00,meteohub,2014-08-23 05:12:00,
2014-08-23 01:17:00,71.4,71.1,30.06,ESE,103,1.0,1.0,99,0.00,,,0.00,meteohub,2014-08-23 05:17:00,
2014-08-23 01:22:00,71.4,71.1,30.05,ESE,103,0.0,1.0,99,0.00,,,0.00,meteohub,2014-08-23 05:22:00,
2014-08-23 01:27:00,71.4,71.1,30.05,ESE,103,0.0,1.0,99,0.00,,,0.00,meteohub,2014-08-23 05:27:00,
2014-08-23 01:32:00,71.2,70.9,30.06,NE,49,1.0,1.0,99,0.00,,,0.00,meteohub,2014-08-23 05:32:00,
2014-08-23 01:37:00,71.1,70.7,30.06,NE,49,0.0,1.0,99,0.00,,,0.00,meteohub,2014-08-23 05:37:00,
2014-08-23 01:42:00,70.9,70.5,30.06,NE,49,0.0,1.0,99,0.00,,,0.00,meteohub,2014-08-23 05:42:00,
2014-08-23 01:47:00,70.9,70.5,30.06,NE,49,0.0,1.0,99,0.00,,,0.00,meteohub,2014-08-23 05:47:00,
2014-08-23 01:52:00,70.9,70.5,30.06,NE,49,0.0,1.0,99,0.00,,,0.00,meteohub,2014-08-23 05:52:00,
2014-08-23 01:57:00,70.5,70.2,30.05,NE,48,0.0,1.0,99,0.00,,,0.00,meteohub,2014-08-23 05:57:00,
2014-08-23 02:02:00,70.3,70.0,30.05,NE,48,0.0,1.0,99,0.00,,,0.00,meteohub,2014-08-23 06:02:00,
2014-08-23 02:07:00,70.3,70.0,30.05,NE,50,0.0,1.0,99,0.00,,,0.00,meteohub,2014-08-23 06:07:00,
2014-08-23 02:12:00,70.3,70.0,30.05,NE,50,0.0,1.0,99,0.00,,,0.00,meteohub,2014-08-23 06:12:00,
2014-08-23 02:17:00,70.2,69.8,30.05,NE,50,0.0,1.0,99,0.00,,,0.00,meteohub,2014-08-23 06:17:00,
2014-08-23 02:22:00,70.2,69.8,30.05,NE,46,0.0,1.0,99,0.00,,,0.00,meteohub,2014-08-23 06:22:00,
2014-08-23 02:27:00,70.2,69.8,30.04,NE,46,0.0,1.0,99,0.00,,,0.00,meteohub,2014-08-23 06:27:00,
2014-08-23 02:32:00,70.2,69.8,30.04,NE,46,0.0,1.0,99,0.00,,,0.00,meteohub,2014-08-23 06:32:00,
2014-08-23 02:37:00,70.2,69.8,30.04,NE,47,0.0,0.0,99,0.00,,,0.00,meteohub,2014-08-23 06:37:00,
2014-08-23 02:42:00,70.2,69.8,30.04,NNW,330,1.0,0.0,99,0.00,,,0.00,meteohub,2014-08-23 06:42:00,
2014-08-23 02:47:00,70.2,70.2,30.04,NW,312,1.0,2.0,100,0.00,,,0.00,meteohub,2014-08-23 06:47:00,
2014-08-23 02:52:00,70.3,70.3,30.04,NW,314,1.0,2.0,100,0.01,,,0.01,meteohub,2014-08-23 06:52:00,
2014-08-23 02:57:00,70.3,70.3,30.04,NW,313,0.0,2.0,100,0.01,,,0.01,meteohub,2014-08-23 06:57:00,
2014-08-23 03:02:00,70.0,69.6,30.04,NE,39,1.0,2.0,99,0.01,,,0.01,meteohub,2014-08-23 07:02:00,
2014-08-23 03:07:00,69.6,69.3,30.04,NE,51,1.0,1.0,99,0.01,,,0.01,meteohub,2014-08-23 07:07:00,
2014-08-23 03:12:00,69.4,69.1,30.04,NE,51,0.0,2.0,99,0.01,,,0.01,meteohub,2014-08-23 07:12:00,
2014-08-23 03:17:00,69.6,69.3,30.04,NE,51,0.0,2.0,99,0.01,,,0.01,meteohub,2014-08-23 07:17:00,
2014-08-23 03:22:00,69.4,69.1,30.04,NE,51,0.0,2.0,99,0.01,,,0.01,meteohub,2014-08-23 07:22:00,
2014-08-23 03:27:00,69.4,69.1,30.04,NE,51,0.0,0.0,99,0.01,,,0.01,meteohub,2014-08-23 07:27:00,
2014-08-23 03:32:00,69.1,68.7,30.04,NE,51,0.0,0.0,99,0.01,,,0.01,meteohub,2014-08-23 07:32:00,
2014-08-23 03:37:00,69.1,68.7,30.04,NE,51,0.0,0.0,99,0.01,,,0.01,meteohub,2014-08-23 07:37:00,
2014-08-23 03:42:00,69.1,68.7,30.04,NE,51,0.0,0.0,99,0.01,,,0.01,meteohub,2014-08-23 07:42:00,
2014-08-23 03:47:00,69.1,69.1,30.04,NE,51,0.0,0.0,100,0.01,,,0.01,meteohub,2014-08-23 07:47:00,
2014-08-23 03:52:00,69.1,68.7,30.04,NE,51,0.0,0.0,99,0.00,,,0.01,meteohub,2014-08-23 07:52:00,
2014-08-23 03:57:00,69.1,69.1,30.04,NE,51,0.0,0.0,100,0.00,,,0.01,meteohub,2014-08-23 07:57:00,
2014-08-23 04:02:00,69.1,69.1,30.04,NE,49,0.0,0.0,100,0.00,,,0.01,meteohub,2014-08-23 08:02:00,
2014-08-23 04:07:00,69.1,69.1,30.04,NE,48,0.0,0.0,100,0.00,,,0.01,meteohub,2014-08-23 08:07:00,
2014-08-23 04:12:00,69.3,69.3,30.04,ENE,69,0.0,0.0,100,0.00,,,0.01,meteohub,2014-08-23 08:12:00,
2014-08-23 04:17:00,68.7,68.7,30.04,East,82,0.0,0.0,100,0.00,,,0.01,meteohub,2014-08-23 08:17:00,
2014-08-23 04:22:00,68.5,68.2,30.04,East,84,0.0,0.0,99,0.00,,,0.01,meteohub,2014-08-23 08:22:00,
2014-08-23 04:27:00,69.1,69.1,30.04,East,84,0.0,0.0,100,0.00,,,0.01,meteohub,2014-08-23 08:27:00,
2014-08-23 04:32:00,69.1,69.1,30.04,East,84,0.0,0.0,100,0.00,,,0.01,meteohub,2014-08-23 08:32:00,
2014-08-23 04:37:00,68.7,68.7,30.04,East,83,0.0,0.0,100,0.00,,,0.01,meteohub,2014-08-23 08:37:00,
2014-08-23 04:42:00,68.7,68.7,30.04,East,84,0.0,0.0,100,0.00,,,0.01,meteohub,2014-08-23 08:42:00,
2014-08-23 04:47:00,68.7,68.7,30.04,East,83,0.0,0.0,100,0.00,,,0.01,meteohub,2014-08-23 08:47:00,
2014-08-23 04:52:00,68.7,68.7,30.04,East,83,0.0,0.0,100,0.00,,,0.01,meteohub,2014-08-23 08:52:00,
2014-08-23 04:57:00,68.7,68.7,30.03,East,84,0.0,0.0,100,0.00,,,0.01,meteohub,2014-08-23 08:57:00,
2014-08-23 05:02:00,68.7,68.7,30.03,East,84,0.0,0.0,100,0.00,,,0.01,meteohub,2014-08-23 09:02:00,
2014-08-23 05:07:00,68.7,68.7,30.03,East,83,0.0,0.0,100,0.00,,,0.01,meteohub,2014-08-23 09:07:00,
2014-08-23 05:12:00,68.5,68.5,30.03,East,84,0.0,0.0,100,0.00,,,0.01,meteohub,2014-08-23 09:12:00,
2014-08-23 05:17:00,68.4,68.4,30.03,East,83,0.0,0.0,100,0.00,,,0.01,meteohub,2014-08-23 09:17:00,
2014-08-23 05:22:00,68.2,68.2,30.04,East,83,0.0,0.0,100,0.00,,,0.01,meteohub,2014-08-23 09:22:00,
2014-08-23 05:27:00,68.2,68.2,30.04,East,83,0.0,0.0,100,0.00,,,0.01,meteohub,2014-08-23 09:27:00,
2014-08-23 05:32:00,68.2,68.2,30.04,East,84,0.0,0.0,100,0.00,,,0.01,meteohub,2014-08-23 09:32:00,
2014-08-23 05:37:00,68.2,68.2,30.04,East,84,0.0,0.0,100,0.00,,,0.01,meteohub,2014-08-23 09:37:00,
2014-08-23 05:42:00,68.0,68.0,30.04,East,83,0.0,0.0,100,0.00,,,0.01,meteohub,2014-08-23 09:42:00,
2014-08-23 05:47:00,68.2,68.2,30.04,East,84,0.0,0.0,100,0.00,,,0.01,meteohub,2014-08-23 09:47:00,
2014-08-23 05:52:00,68.0,68.0,30.04,East,84,0.0,0.0,100,0.00,,,0.01,meteohub,2014-08-23 09:52:00,
2014-08-23 05:57:00,68.0,68.0,30.04,East,84,0.0,0.0,100,0.00,,,0.01,meteohub,2014-08-23 09:57:00,
2014-08-23 06:02:00,68.0,68.0,30.04,East,82,0.0,0.0,100,0.00,,,0.01,meteohub,2014-08-23 10:02:00,
2014-08-23 06:07:00,68.0,68.0,30.04,East,82,0.0,0.0,100,0.00,,,0.01,meteohub,2014-08-23 10:07:00,
2014-08-23 06:12:00,68.2,68.2,30.05,East,82,0.0,0.0,100,0.00,,,0.01,meteohub,2014-08-23 10:12:00,
2014-08-23 06:17:00,68.0,68.0,30.05,East,83,0.0,0.0,100,0.00,,,0.01,meteohub,2014-08-23 10:17:00,
2014-08-23 06:22:00,67.8,67.8,30.05,East,84,0.0,0.0,100,0.00,,,0.01,meteohub,2014-08-23 10:22:00,
2014-08-23 06:27:00,68.2,68.2,30.05,East,83,0.0,0.0,100,0.00,,,0.01,meteohub,2014-08-23 10:27:00,
2014-08-23 06:32:00,68.2,68.2,30.05,East,84,0.0,0.0,100,0.00,,,0.01,meteohub,2014-08-23 10:32:00,
2014-08-23 06:37:00,68.2,68.2,30.05,East,83,0.0,0.0,100,0.00,,,0.01,meteohub,2014-08-23 10:37:00,
2014-08-23 06:42:00,68.2,68.2,30.05,East,84,0.0,0.0,100,0.00,,,0.01,meteohub,2014-08-23 10:42:00,
2014-08-23 06:47:00,68.2,68.2,30.06,East,84,0.0,0.0,100,0.00,,,0.01,meteohub,2014-08-23 10:47:00,
2014-08-23 06:52:00,68.2,68.2,30.06,East,84,0.0,0.0,100,0.00,,,0.01,meteohub,2014-08-23 10:52:00,
2014-08-23 06:57:00,68.2,68.2,30.06,East,84,0.0,0.0,100,0.00,,,0.01,meteohub,2014-08-23 10:57:00,
2014-08-23 07:02:00,68.4,68.4,30.06,East,84,0.0,0.0,100,0.00,,,0.01,meteohub,2014-08-23 11:02:00,
2014-08-23 07:07:00,68.4,68.4,30.06,East,83,0.0,0.0,100,0.00,,,0.01,meteohub,2014-08-23 11:07:00,
2014-08-23 07:12:00,68.4,68.4,30.06,East,84,0.0,0.0,100,0.00,,,0.01,meteohub,2014-08-23 11:12:00,
2014-08-23 07:17:00,68.4,68.4,30.06,East,83,0.0,0.0,100,0.00,,,0.01,meteohub,2014-08-23 11:17:00,
2014-08-23 07:22:00,68.5,68.5,30.06,East,84,0.0,0.0,100,0.00,,,0.01,meteohub,2014-08-23 11:22:00,
2014-08-23 07:27:00,68.5,68.5,30.07,East,83,0.0,0.0,100,0.00,,,0.01,meteohub,2014-08-23 11:27:00,
2014-08-23 07:32:00,68.7,68.7,30.07,WSW,249,0.0,0.0,100,0.00,,,0.01,meteohub,2014-08-23 11:32:00,
2014-08-23 07:37:00,68.9,68.9,30.07,West,260,0.0,0.0,100,0.00,,,0.01,meteohub,2014-08-23 11:37:00,
2014-08-23 07:42:00,69.1,69.1,30.07,West,259,0.0,0.0,100,0.00,,,0.01,meteohub,2014-08-23 11:42:00,
2014-08-23 07:47:00,69.3,69.3,30.07,WSW,252,0.0,0.0,100,0.00,,,0.01,meteohub,2014-08-23 11:47:00,
2014-08-23 07:52:00,69.3,69.3,30.07,WSW,252,0.0,0.0,100,0.00,,,0.01,meteohub,2014-08-23 11:52:00,
2014-08-23 07:57:00,69.4,69.4,30.07,WSW,243,0.0,0.0,100,0.00,,,0.01,meteohub,2014-08-23 11:57:00,
2014-08-23 08:02:00,69.6,69.6,30.07,WSW,239,0.0,0.0,100,0.00,,,0.01,meteohub,2014-08-23 12:02:00,
2014-08-23 08:07:00,69.8,69.8,30.08,WSW,250,0.0,0.0,100,0.00,,,0.01,meteohub,2014-08-23 12:07:00,
2014-08-23 08:12:00,70.0,70.0,30.07,WSW,250,0.0,0.0,100,0.00,,,0.01,meteohub,2014-08-23 12:12:00,
2014-08-23 08:17:00,70.2,70.2,30.07,WSW,250,0.0,0.0,100,0.00,,,0.01,meteohub,2014-08-23 12:17:00,
2014-08-23 08:22:00,70.5,70.5,30.08,WSW,250,0.0,0.0,100,0.00,,,0.01,meteohub,2014-08-23 12:22:00,
2014-08-23 08:27:00,70.9,70.9,30.07,WSW,250,0.0,1.0,100,0.00,,,0.01,meteohub,2014-08-23 12:27:00,
2014-08-23 08:32:00,71.1,71.1,30.07,WSW,250,0.0,1.0,100,0.00,,,0.01,meteohub,2014-08-23 12:32:00,
2014-08-23 08:37:00,71.8,71.8,30.07,WSW,250,0.0,1.0,100,0.00,,,0.01,meteohub,2014-08-23 12:37:00,
2014-08-23 08:42:00,71.8,71.8,30.07,WSW,250,0.0,0.0,100,0.00,,,0.01,meteohub,2014-08-23 12:42:00,
2014-08-23 08:47:00,72.0,72.0,30.07,WSW,250,0.0,0.0,100,0.00,,,0.01,meteohub,2014-08-23 12:47:00,
2014-08-23 08:52:00,72.1,72.1,30.07,WSW,250,0.0,1.0,100,0.00,,,0.01,meteohub,2014-08-23 12:52:00,
2014-08-23 08:57:00,72.1,72.1,30.07,NE,54,0.0,2.0,100,0.00,,,0.01,meteohub,2014-08-23 12:57:00,
2014-08-23 09:02:00,72.1,72.1,30.07,ENE,72,1.0,2.0,100,0.00,,,0.01,meteohub,2014-08-23 13:02:00,
2014-08-23 09:07:00,72.3,72.3,30.07,East,81,0.0,3.0,100,0.00,,,0.01,meteohub,2014-08-23 13:07:00,
2014-08-23 09:12:00,72.3,72.3,30.07,ESE,122,1.0,3.0,100,0.00,,,0.01,meteohub,2014-08-23 13:12:00,
2014-08-23 09:17:00,72.7,72.7,30.07,ESE,122,0.0,3.0,100,0.00,,,0.01,meteohub,2014-08-23 13:17:00,
2014-08-23 09:22:00,73.2,73.2,30.07,ESE,122,0.0,3.0,100,0.00,,,0.01,meteohub,2014-08-23 13:22:00,
2014-08-23 09:27:00,73.2,73.2,30.06,East,100,0.0,3.0,100,0.00,,,0.01,meteohub,2014-08-23 13:27:00,
2014-08-23 09:32:00,73.6,73.6,30.07,East,90,1.0,2.0,100,0.00,,,0.01,meteohub,2014-08-23 13:32:00,
2014-08-23 09:37:00,73.2,73.2,30.07,ENE,75,0.0,2.0,100,0.00,,,0.01,meteohub,2014-08-23 13:37:00,
2014-08-23 09:42:00,73.6,73.6,30.07,East,91,1.0,2.0,100,0.00,,,0.01,meteohub,2014-08-23 13:42:00,
2014-08-23 09:47:00,73.8,73.8,30.08,East,93,0.0,3.0,100,0.00,,,0.01,meteohub,2014-08-23 13:47:00,
2014-08-23 09:52:00,73.8,73.8,30.08,ENE,59,1.0,3.0,100,0.00,,,0.01,meteohub,2014-08-23 13:52:00,
2014-08-23 09:57:00,73.8,73.8,30.08,ENE,66,1.0,3.0,100,0.00,,,0.01,meteohub,2014-08-23 13:57:00,
2014-08-23 10:02:00,73.8,73.8,30.08,ENE,68,1.0,3.0,100,0.00,,,0.01,meteohub,2014-08-23 14:02:00,
2014-08-23 10:07:00,73.9,73.9,30.08,ENE,63,0.0,2.0,100,0.00,,,0.01,meteohub,2014-08-23 14:07:00,
2014-08-23 10:12:00,74.1,74.1,30.08,NE,43,2.0,2.0,100,0.00,,,0.01,meteohub,2014-08-23 14:12:00,
2014-08-23 10:17:00,74.1,74.1,30.08,ENE,63,1.0,4.0,100,0.00,,,0.01,meteohub,2014-08-23 14:17:00,
2014-08-23 10:22:00,74.5,74.5,30.09,ENE,57,0.0,4.0,100,0.00,,,0.01,meteohub,2014-08-23 14:22:00,
2014-08-23 10:27:00,75.4,75.4,30.09,ENE,59,0.0,4.0,100,0.00,,,0.01,meteohub,2014-08-23 14:27:00,
2014-08-23 10:32:00,75.9,75.9,30.09,South,174,0.0,3.0,100,0.00,,,0.01,meteohub,2014-08-23 14:32:00,
2014-08-23 10:37:00,76.5,76.5,30.09,SSE,168,0.0,1.0,100,0.00,,,0.01,meteohub,2014-08-23 14:37:00,
2014-08-23 10:42:00,76.6,76.3,30.09,SW,236,0.0,1.0,99,0.00,,,0.01,meteohub,2014-08-23 14:42:00,
2014-08-23 10:47:00,77.5,77.2,30.09,NE,39,0.0,2.0,99,0.00,,,0.01,meteohub,2014-08-23 14:47:00,
2014-08-23 10:52:00,78.4,78.4,30.08,SSE,149,0.0,2.0,100,0.00,,,0.01,meteohub,2014-08-23 14:52:00,
2014-08-23 10:57:00,78.8,78.4,30.08,SW,219,0.0,2.0,99,0.00,,,0.01,meteohub,2014-08-23 14:57:00,
2014-08-23 11:02:00,78.8,78.4,30.08,ESE,105,3.0,5.0,99,0.00,,,0.01,meteohub,2014-08-23 15:02:00,
2014-08-23 11:07:00,78.6,78.1,30.07,East,85,2.0,5.0,98,0.00,,,0.01,meteohub,2014-08-23 15:07:00,
2014-08-23 11:12:00,78.4,77.5,30.07,ENE,59,1.0,5.0,97,0.00,,,0.01,meteohub,2014-08-23 15:12:00,
2014-08-23 11:17:00,79.0,77.7,30.07,ESE,108,5.0,5.0,96,0.00,,,0.01,meteohub,2014-08-23 15:17:00,
2014-08-23 11:22:00,79.3,77.5,30.07,ESE,115,0.0,5.0,94,0.00,,,0.01,meteohub,2014-08-23 15:22:00,
2014-08-23 11:27:00,79.9,77.7,30.07,SE,143,3.0,6.0,93,0.00,,,0.01,meteohub,2014-08-23 15:27:00,
2014-08-23 11:32:00,79.7,77.2,30.07,East,83,2.0,7.0,92,0.00,,,0.01,meteohub,2014-08-23 15:32:00,
2014-08-23 11:37:00,80.2,77.4,30.08,North,349,1.0,7.0,91,0.00,,,0.01,meteohub,2014-08-23 15:37:00,
2014-08-23 11:42:00,81.1,77.9,30.08,ESE,121,2.0,7.0,90,0.00,,,0.01,meteohub,2014-08-23 15:42:00,
2014-08-23 11:47:00,82.4,78.8,30.08,East,82,3.0,4.0,89,0.00,,,0.01,meteohub,2014-08-23 15:47:00,
2014-08-23 11:52:00,82.4,77.4,30.08,NW,306,2.0,4.0,85,0.00,,,0.01,meteohub,2014-08-23 15:52:00,
2014-08-23 11:57:00,82.4,77.7,30.08,ENE,70,2.0,4.0,86,0.00,,,0.01,meteohub,2014-08-23 15:57:00,
2014-08-23 12:02:00,82.2,76.8,30.08,NNE,30,3.0,4.0,84,0.00,,,0.01,meteohub,2014-08-23 16:02:00,
2014-08-23 12:07:00,81.9,76.5,30.08,NNE,32,0.0,6.0,84,0.00,,,0.01,meteohub,2014-08-23 16:07:00,
2014-08-23 12:12:00,82.2,76.1,30.08,ENE,65,2.0,6.0,82,0.00,,,0.01,meteohub,2014-08-23 16:12:00,
2014-08-23 12:17:00,82.8,75.9,30.08,East,91,1.0,5.0,80,0.00,,,0.01,meteohub,2014-08-23 16:17:00,
2014-08-23 12:22:00,84.4,77.5,30.08,North,355,1.0,4.0,80,0.00,,,0.01,meteohub,2014-08-23 16:22:00,
2014-08-23 12:27:00,84.7,76.6,30.08,WNW,295,2.0,4.0,77,0.00,,,0.01,meteohub,2014-08-23 16:27:00,
2014-08-23 12:32:00,84.2,76.3,30.08,NE,39,1.0,4.0,77,0.00,,,0.01,meteohub,2014-08-23 16:32:00,
2014-08-23 12:37:00,84.4,77.2,30.07,North,349,2.0,4.0,79,0.00,,,0.01,meteohub,2014-08-23 16:37:00,
2014-08-23 12:42:00,84.6,76.5,30.07,NE,53,0.0,5.0,77,0.00,,,0.01,meteohub,2014-08-23 16:42:00,
2014-08-23 12:47:00,84.4,77.2,30.07,ENE,68,2.0,5.0,79,0.00,,,0.01,meteohub,2014-08-23 16:47:00,
2014-08-23 12:52:00,84.4,76.8,30.07,East,86,3.0,5.0,78,0.00,,,0.01,meteohub,2014-08-23 16:52:00,
2014-08-23 12:57:00,84.4,75.9,30.06,NE,40,1.0,5.0,76,0.00,,,0.01,meteohub,2014-08-23 16:57:00,
2014-08-23 13:02:00,84.7,76.6,30.06,NE,37,1.0,4.0,77,0.00,,,0.01,meteohub,2014-08-23 17:02:00,
2014-08-23 13:07:00,84.9,76.1,30.07,East,84,0.0,4.0,75,0.00,,,0.01,meteohub,2014-08-23 17:07:00,
2014-08-23 13:12:00,84.6,76.1,30.07,ESE,110,1.0,4.0,76,0.00,,,0.01,meteohub,2014-08-23 17:12:00,
2014-08-23 13:17:00,84.6,76.5,30.06,ESE,115,0.0,4.0,77,0.00,,,0.01,meteohub,2014-08-23 17:17:00,
2014-08-23 13:22:00,85.1,77.0,30.06,North,1,1.0,3.0,77,0.00,,,0.01,meteohub,2014-08-23 17:22:00,
2014-08-23 13:27:00,85.1,76.3,30.06,East,79,1.0,2.0,75,0.00,,,0.01,meteohub,2014-08-23 17:27:00,
2014-08-23 13:32:00,84.4,76.5,30.06,East,100,3.0,4.0,77,0.00,,,0.01,meteohub,2014-08-23 17:32:00,
2014-08-23 13:37:00,84.4,76.5,30.06,NW,309,0.0,4.0,77,0.00,,,0.01,meteohub,2014-08-23 17:37:00,
2014-08-23 13:42:00,85.1,77.0,30.06,ESE,118,4.0,4.0,77,0.00,,,0.01,meteohub,2014-08-23 17:42:00,
2014-08-23 13:47:00,85.5,76.3,30.06,SW,214,1.0,5.0,74,0.00,,,0.01,meteohub,2014-08-23 17:47:00,
2014-08-23 13:52:00,86.5,75.9,30.06,SSE,153,1.0,5.0,71,0.00,,,0.01,meteohub,2014-08-23 17:52:00,
2014-08-23 13:57:00,87.3,75.9,30.06,WSW,245,2.0,5.0,69,0.00,,,0.01,meteohub,2014-08-23 17:57:00,
2014-08-23 14:02:00,87.1,75.7,30.06,SSW,204,2.0,4.0,69,0.00,,,0.01,meteohub,2014-08-23 18:02:00,
2014-08-23 14:07:00,87.6,76.1,30.06,WNW,298,3.0,4.0,69,0.00,,,0.01,meteohub,2014-08-23 18:07:00,
2014-08-23 14:12:00,87.4,75.6,30.06,NNE,27,2.0,4.0,68,0.00,,,0.01,meteohub,2014-08-23 18:12:00,
2014-08-23 14:17:00,87.3,75.9,30.05,ENE,57,1.0,4.0,69,0.00,,,0.01,meteohub,2014-08-23 18:17:00,
2014-08-23 14:22:00,88.0,77.4,30.05,North,359,3.0,4.0,71,0.00,,,0.01,meteohub,2014-08-23 18:22:00,
2014-08-23 14:27:00,88.0,75.6,30.05,West,274,1.0,4.0,67,0.00,,,0.01,meteohub,2014-08-23 18:27:00,
2014-08-23 14:32:00,89.1,77.5,30.05,NE,40,1.0,4.0,69,0.00,,,0.01,meteohub,2014-08-23 18:32:00,
2014-08-23 14:37:00,87.3,77.2,30.05,NE,36,8.0,8.0,72,0.00,,,0.01,meteohub,2014-08-23 18:37:00,
2014-08-23 14:42:00,84.9,76.8,30.06,NE,45,4.0,11.0,77,0.00,,,0.01,meteohub,2014-08-23 18:42:00,
2014-08-23 14:47:00,83.8,77.0,30.05,ENE,75,5.0,11.0,80,0.00,,,0.01,meteohub,2014-08-23 18:47:00,
2014-08-23 14:52:00,83.1,77.0,30.05,East,83,3.0,11.0,82,0.00,,,0.01,meteohub,2014-08-23 18:52:00,
2014-08-23 14:57:00,82.8,76.6,30.06,ENE,57,2.0,8.0,82,0.00,,,0.01,meteohub,2014-08-23 18:57:00,
2014-08-23 15:02:00,83.1,77.7,30.05,NE,46,3.0,8.0,84,0.00,,,0.01,meteohub,2014-08-23 19:02:00,